Location: Cheching
(60.0667°N, 164.2167°W)
Time: 01:17:13
(UTC+00:00)

DX 1 - Pass Details

Date: 02 February 2021
Orbit: 618 x 631 km, 98.5° (Epoch: 07 March)

Event Time Altitude Azimuth Distance (km) Brightness Sun altitude
Rises 17:08:10 0° 182° (S) 2,903 ? -14.6°
Reaches altitude 10° 17:10:27 10° 190° (S) 1,998 ? -14.4°
Maximum altitude 17:14:34 41° 261° (W) 911 ? -13.8°
Drops below altitude 10° 17:18:43 10° 332° (NNW) 2,006 ? -13.3°
Enters shadow 17:20:40 - 339° (NNW) 2,775 ? -13.1°
